This is the latest recevied weather packets stored in our database for station/object DC4XK-10. If no packets are shown the sender has not sent any weather packets the latest 10 day(s).
| Time | Temp. | Humidity | Pressure | Rain* | Wind** | Luminosity | Snow |
|---|---|---|---|---|---|---|---|
| 1777419531 | 2.78° C | 93% | 1027.7 hPa | 0 mm | 0 m/s | - | - |
| 1777418931 | 2.78° C | 93% | 1027.5 hPa | 0 mm | 0 m/s | - | - |
| 1777418331 | 2.78° C | 91% | 1027.5 hPa | 0 mm | 0 m/s | - | - |
| 1777417731 | 3.89° C | 91% | 1027.4 hPa | 0 mm | 0 m/s | - | - |
| 1777417131 | 3.89° C | 90% | 1027.4 hPa | 0 mm | 0 m/s | - | - |
| 1777416531 | 3.89° C | 90% | 1027.4 hPa | 0 mm | 0 m/s | - | - |
| 1777415931 | 4.44° C | 89% | 1027.1 hPa | 0 mm | 0 m/s | - | - |
| 1777415330 | 4.44° C | 88% | 1027.2 hPa | 0 mm | 0 m/s | - | - |
| 1777414731 | 4.44° C | 87% | 1027.2 hPa | 0 mm | 0 m/s | - | - |
| 1777414130 | 4.44° C | 87% | 1027.1 hPa | 0 mm | 0 m/s | - | - |
| 1777413531 | 4.44° C | 85% | 1027.2 hPa | 0 mm | 0 m/s | - | - |
| 1777412932 | 4.44° C | 83% | 1027.2 hPa | 0 mm | 0 m/s | - | - |
| 1777412331 | 5° C | 81% | 1027 hPa | 0 mm | 0 m/s | - | - |
| 1777411731 | 5° C | 79% | 1027 hPa | 0 mm | 0 m/s | - | - |
| 1777411133 | 5.56° C | 76% | 1027 hPa | 0 mm | 0 m/s | - | - |
| 1777410531 | 5.56° C | 75% | 1026.8 hPa | 0 mm | 0 m/s | - | - |
| 1777409930 | 5.56° C | 73% | 1026.8 hPa | 0 mm | 0 m/s | - | - |
| 1777409333 | 6.11° C | 71% | 1026.7 hPa | 0 mm | 0 m/s | - | - |
| 1777408731 | 6.11° C | 70% | 1026.7 hPa | 0 mm | 0 m/s | - | - |
| 1777408131 | 6.11° C | 68% | 1026.5 hPa | 0 mm | 0 m/s | - | - |
| 1777407533 | 6.67° C | 66% | 1026.3 hPa | 0 mm | 0 m/s | - | - |
| 1777406931 | 7.78° C | 61% | 1026.3 hPa | 0 mm | 0 m/s | - | - |
| 1777406330 | 7.78° C | 58% | 1026.4 hPa | 0 mm | 0 m/s | - | - |
| 1777405731 | 8.33° C | 56% | 1026.5 hPa | 0 mm | 0.45 m/s, 101° | - | - |
| 1777405131 | 8.33° C | 55% | 1026.5 hPa | 0 mm | 0 m/s | - | - |
* Rain latest hour (hover to see other rain measurements)
** Current wind speed in m/s (hover to see current wind gust speed)